Time,TemperatureF,DewpointF,PressureIn,WindDirection,WindDirectionDegrees,WindSpeedMPH,WindSpeedGustMPH,Humidity,HourlyPrecipIn,Conditions,Clouds,dailyrainin,SolarRadiationWatts/m^2,SoftwareType,DateUTC
2013-07-08 00:00:00,66.7,65.5,30.10,SE,140,0.0,0.0,96,0.00,,,0.45,0.0,meteohub,2013-07-08 04:00:00,
2013-07-08 00:01:00,66.7,65.5,30.10,SE,140,0.0,0.0,96,0.00,,,0.45,0.0,meteohub,2013-07-08 04:01:00,
2013-07-08 00:02:00,66.7,65.5,30.10,SE,140,0.0,0.0,96,0.00,,,0.45,0.0,meteohub,2013-07-08 04:02:00,
2013-07-08 00:07:00,66.7,65.5,30.10,SE,140,0.0,0.0,96,0.00,,,0.00,0.0,meteohub,2013-07-08 04:07:00,
2013-07-08 00:12:00,66.7,65.5,30.10,SE,140,0.0,0.0,96,0.00,,,0.00,0.0,meteohub,2013-07-08 04:12:00,
2013-07-08 00:17:00,66.7,65.5,30.10,SE,140,0.0,0.0,96,0.00,,,0.00,0.0,meteohub,2013-07-08 04:17:00,
2013-07-08 00:23:00,66.6,65.3,30.10,SE,140,0.0,0.0,96,0.00,,,0.00,0.0,meteohub,2013-07-08 04:23:00,
2013-07-08 00:28:00,66.6,65.3,30.10,SE,140,0.0,0.0,96,0.00,,,0.00,0.0,meteohub,2013-07-08 04:28:00,
2013-07-08 00:33:00,66.4,65.1,30.10,SE,140,0.0,0.0,96,0.00,,,0.00,0.0,meteohub,2013-07-08 04:33:00,
2013-07-08 00:38:00,66.4,65.1,30.10,SE,140,1.0,0.0,96,0.00,,,0.00,0.0,meteohub,2013-07-08 04:38:00,
2013-07-08 00:43:00,66.2,64.9,30.10,SE,139,1.0,1.0,96,0.00,,,0.00,0.0,meteohub,2013-07-08 04:43:00,
2013-07-08 00:48:00,66.0,64.6,30.10,SE,130,0.0,2.0,95,0.00,,,0.00,0.0,meteohub,2013-07-08 04:48:00,
2013-07-08 00:53:00,66.0,64.6,30.10,SE,130,0.0,2.0,95,0.00,,,0.00,0.0,meteohub,2013-07-08 04:53:00,
2013-07-08 00:58:00,65.8,64.4,30.10,SE,130,0.0,2.0,95,0.00,,,0.00,0.0,meteohub,2013-07-08 04:58:00,
2013-07-08 01:03:00,65.8,64.4,30.10,SE,130,0.0,2.0,95,0.00,,,0.00,0.0,meteohub,2013-07-08 05:03:00,
2013-07-08 01:08:00,65.8,64.6,30.10,SE,130,0.0,2.0,96,0.00,,,0.00,0.0,meteohub,2013-07-08 05:08:00,
2013-07-08 01:13:00,65.8,64.6,30.10,SE,130,0.0,1.0,96,0.00,,,0.00,0.0,meteohub,2013-07-08 05:13:00,
2013-07-08 01:18:00,65.8,64.6,30.10,SE,130,0.0,1.0,96,0.00,,,0.00,0.0,meteohub,2013-07-08 05:18:00,
2013-07-08 01:23:00,65.8,64.6,30.10,SE,130,0.0,1.0,96,0.00,,,0.00,0.0,meteohub,2013-07-08 05:23:00,
2013-07-08 01:28:00,65.7,64.4,30.10,SE,130,0.0,1.0,96,0.00,,,0.00,0.0,meteohub,2013-07-08 05:28:00,
2013-07-08 01:34:00,65.7,64.4,30.09,SE,130,0.0,1.0,96,0.00,,,0.00,0.0,meteohub,2013-07-08 05:34:00,
2013-07-08 01:39:00,65.7,64.4,30.09,SE,130,0.0,0.0,96,0.00,,,0.00,0.0,meteohub,2013-07-08 05:39:00,
2013-07-08 01:44:00,65.7,64.4,30.09,SE,130,0.0,0.0,96,0.00,,,0.00,0.0,meteohub,2013-07-08 05:44:00,
2013-07-08 01:49:00,65.7,64.4,30.09,SE,130,0.0,0.0,96,0.00,,,0.00,0.0,meteohub,2013-07-08 05:49:00,
2013-07-08 01:54:00,65.7,64.4,30.09,SE,130,0.0,0.0,96,0.00,,,0.00,0.0,meteohub,2013-07-08 05:54:00,
2013-07-08 01:59:00,65.5,64.2,30.09,SE,130,1.0,0.0,96,0.00,,,0.00,0.0,meteohub,2013-07-08 05:59:00,
2013-07-08 02:04:00,65.5,64.2,30.10,SE,130,0.0,1.0,96,0.00,,,0.00,0.0,meteohub,2013-07-08 06:04:00,
2013-07-08 02:09:00,65.5,64.2,30.11,SE,130,0.0,1.0,96,0.00,,,0.00,0.0,meteohub,2013-07-08 06:09:00,
2013-07-08 02:14:00,65.5,64.2,30.10,SE,130,0.0,1.0,96,0.00,,,0.00,0.0,meteohub,2013-07-08 06:14:00,
2013-07-08 02:19:00,65.3,64.0,30.11,SE,130,1.0,1.0,96,0.00,,,0.00,0.0,meteohub,2013-07-08 06:19:00,
2013-07-08 02:24:00,65.3,64.0,30.10,SE,130,1.0,1.0,96,0.00,,,0.00,0.0,meteohub,2013-07-08 06:24:00,
2013-07-08 02:29:00,65.3,64.0,30.10,SE,130,0.0,1.0,96,0.00,,,0.00,0.0,meteohub,2013-07-08 06:29:00,
2013-07-08 02:34:00,65.3,64.0,30.10,SE,130,0.0,1.0,96,0.00,,,0.00,0.0,meteohub,2013-07-08 06:34:00,
2013-07-08 02:39:00,65.1,64.0,30.10,SE,130,0.0,1.0,96,0.00,,,0.00,0.0,meteohub,2013-07-08 06:39:00,
2013-07-08 02:44:00,65.1,64.0,30.10,SE,130,0.0,0.0,96,0.00,,,0.00,0.0,meteohub,2013-07-08 06:44:00,
2013-07-08 02:49:00,65.1,64.0,30.10,SE,130,0.0,0.0,96,0.00,,,0.00,0.0,meteohub,2013-07-08 06:49:00,
2013-07-08 02:54:00,65.1,64.0,30.10,SE,130,0.0,1.0,96,0.00,,,0.00,0.0,meteohub,2013-07-08 06:54:00,
2013-07-08 02:59:00,65.1,64.0,30.10,SE,130,0.0,1.0,96,0.00,,,0.00,0.0,meteohub,2013-07-08 06:59:00,
2013-07-08 03:04:00,65.3,64.4,30.10,SE,130,2.0,2.0,97,0.00,,,0.00,0.0,meteohub,2013-07-08 07:04:00,
2013-07-08 03:09:00,65.3,64.4,30.09,SE,130,0.0,2.0,97,0.00,,,0.00,0.0,meteohub,2013-07-08 07:09:00,
2013-07-08 03:14:00,65.3,64.4,30.09,SE,130,1.0,2.0,97,0.00,,,0.00,0.0,meteohub,2013-07-08 07:14:00,
2013-07-08 03:19:00,65.3,64.0,30.09,SE,130,1.0,2.0,96,0.00,,,0.00,0.0,meteohub,2013-07-08 07:19:00,
2013-07-08 03:24:00,65.5,64.2,30.09,SE,130,1.0,2.0,96,0.00,,,0.00,0.0,meteohub,2013-07-08 07:24:00,
2013-07-08 03:29:00,65.5,64.2,30.09,East,85,1.0,2.0,96,0.00,,,0.00,0.0,meteohub,2013-07-08 07:29:00,
2013-07-08 03:35:00,65.5,64.2,30.09,East,85,1.0,3.0,96,0.00,,,0.00,0.0,meteohub,2013-07-08 07:35:00,
2013-07-08 03:40:00,65.5,64.2,30.09,East,85,0.0,3.0,96,0.00,,,0.00,0.0,meteohub,2013-07-08 07:40:00,
2013-07-08 03:45:00,65.5,64.2,30.09,East,85,0.0,2.0,96,0.00,,,0.00,0.0,meteohub,2013-07-08 07:45:00,
2013-07-08 03:50:00,65.5,64.2,30.09,East,85,0.0,2.0,96,0.00,,,0.00,0.0,meteohub,2013-07-08 07:50:00,
2013-07-08 03:55:00,65.5,64.2,30.09,East,85,0.0,1.0,96,0.00,,,0.00,0.0,meteohub,2013-07-08 07:55:00,
2013-07-08 04:00:00,65.5,64.2,30.09,East,85,0.0,1.0,96,0.00,,,0.00,0.0,meteohub,2013-07-08 08:00:00,
2013-07-08 04:05:00,65.5,64.2,30.09,East,85,0.0,1.0,96,0.00,,,0.00,0.0,meteohub,2013-07-08 08:05:00,
2013-07-08 04:10:00,65.5,64.2,30.09,East,85,0.0,1.0,96,0.00,,,0.00,0.0,meteohub,2013-07-08 08:10:00,
2013-07-08 04:15:00,65.5,64.2,30.09,East,85,1.0,2.0,96,0.00,,,0.00,0.0,meteohub,2013-07-08 08:15:00,
2013-07-08 04:20:00,65.7,64.4,30.09,East,85,0.0,2.0,96,0.00,,,0.00,0.0,meteohub,2013-07-08 08:20:00,
2013-07-08 04:25:00,65.7,64.4,30.09,East,85,0.0,2.0,96,0.00,,,0.00,0.0,meteohub,2013-07-08 08:25:00,
2013-07-08 04:30:00,65.7,64.2,30.09,East,85,1.0,2.0,95,0.00,,,0.00,0.0,meteohub,2013-07-08 08:30:00,
2013-07-08 04:35:00,65.7,64.2,30.09,East,85,1.0,2.0,95,0.00,,,0.00,0.0,meteohub,2013-07-08 08:35:00,
2013-07-08 04:40:00,65.7,64.2,30.09,East,85,0.0,2.0,95,0.00,,,0.00,0.0,meteohub,2013-07-08 08:40:00,
2013-07-08 04:45:00,65.7,64.2,30.08,East,83,1.0,2.0,95,0.00,,,0.00,0.0,meteohub,2013-07-08 08:45:00,
2013-07-08 04:50:00,65.7,64.2,30.08,East,83,1.0,2.0,95,0.00,,,0.00,0.0,meteohub,2013-07-08 08:50:00,
2013-07-08 04:55:00,65.8,64.4,30.08,East,83,0.0,2.0,95,0.00,,,0.00,0.0,meteohub,2013-07-08 08:55:00,
2013-07-08 05:00:00,65.7,64.2,30.08,East,83,0.0,2.0,95,0.00,,,0.00,0.0,meteohub,2013-07-08 09:00:00,
2013-07-08 05:05:00,65.7,64.2,30.08,East,83,0.0,2.0,95,0.00,,,0.00,0.0,meteohub,2013-07-08 09:05:00,
2013-07-08 05:10:00,65.7,64.2,30.09,East,83,0.0,2.0,95,0.00,,,0.00,0.0,meteohub,2013-07-08 09:10:00,
2013-07-08 05:15:00,65.7,64.2,30.09,East,83,0.0,1.0,95,0.00,,,0.00,0.0,meteohub,2013-07-08 09:15:00,
2013-07-08 05:20:00,65.7,64.2,30.09,East,83,0.0,0.0,95,0.00,,,0.00,0.0,meteohub,2013-07-08 09:20:00,
2013-07-08 05:25:00,65.7,64.2,30.09,East,83,0.0,1.0,95,0.00,,,0.00,0.0,meteohub,2013-07-08 09:25:00,
2013-07-08 05:30:00,65.5,64.0,30.09,East,83,0.0,1.0,95,0.00,,,0.00,0.0,meteohub,2013-07-08 09:30:00,
2013-07-08 05:35:00,65.5,64.0,30.09,East,83,1.0,1.0,95,0.00,,,0.00,0.0,meteohub,2013-07-08 09:35:00,
2013-07-08 05:40:00,65.3,63.9,30.09,East,83,0.0,1.0,95,0.00,,,0.00,0.0,meteohub,2013-07-08 09:40:00,
2013-07-08 05:45:00,65.1,63.7,30.09,East,83,0.0,1.0,95,0.00,,,0.00,0.0,meteohub,2013-07-08 09:45:00,
2013-07-08 05:50:00,65.1,63.7,30.09,East,83,0.0,1.0,95,0.00,,,0.00,0.0,meteohub,2013-07-08 09:50:00,
2013-07-08 05:55:00,65.1,63.7,30.09,East,83,0.0,1.0,95,0.00,,,0.00,0.0,meteohub,2013-07-08 09:55:00,
2013-07-08 06:00:00,64.9,63.5,30.09,East,83,0.0,1.0,95,0.00,,,0.00,0.0,meteohub,2013-07-08 10:00:00,
2013-07-08 06:06:00,64.9,63.5,30.09,East,83,0.0,1.0,95,0.00,,,0.00,0.0,meteohub,2013-07-08 10:06:00,
2013-07-08 06:10:00,64.9,63.5,30.09,East,83,0.0,1.0,95,0.00,,,0.00,0.0,meteohub,2013-07-08 10:10:00,
2013-07-08 06:16:00,64.8,63.3,30.09,East,83,0.0,2.0,95,0.00,,,0.00,0.0,meteohub,2013-07-08 10:16:00,
2013-07-08 06:21:00,64.8,63.3,30.09,East,83,0.0,2.0,95,0.00,,,0.00,0.0,meteohub,2013-07-08 10:21:00,
2013-07-08 06:26:00,64.8,63.3,30.09,East,83,0.0,2.0,95,0.00,,,0.00,0.0,meteohub,2013-07-08 10:26:00,
2013-07-08 06:31:00,64.6,63.1,30.09,East,83,0.0,1.0,95,0.00,,,0.00,0.0,meteohub,2013-07-08 10:31:00,
2013-07-08 06:36:00,64.6,63.1,30.09,East,83,0.0,1.0,95,0.00,,,0.00,0.0,meteohub,2013-07-08 10:36:00,
2013-07-08 06:41:00,64.6,63.5,30.09,East,83,0.0,1.0,96,0.00,,,0.00,0.0,meteohub,2013-07-08 10:41:00,
2013-07-08 06:46:00,64.6,63.5,30.09,East,83,0.0,1.0,96,0.00,,,0.00,5.0,meteohub,2013-07-08 10:46:00,
2013-07-08 06:51:00,64.6,63.5,30.10,East,83,0.0,1.0,96,0.00,,,0.00,9.0,meteohub,2013-07-08 10:51:00,
2013-07-08 06:56:00,64.8,63.7,30.10,East,83,0.0,1.0,96,0.00,,,0.00,11.0,meteohub,2013-07-08 10:56:00,
2013-07-08 07:01:00,64.8,63.7,30.10,East,83,1.0,1.0,96,0.00,,,0.00,12.0,meteohub,2013-07-08 11:01:00,
2013-07-08 07:06:00,64.8,63.7,30.10,East,83,2.0,2.0,96,0.00,,,0.00,14.0,meteohub,2013-07-08 11:06:00,
2013-07-08 07:11:00,64.9,63.9,30.10,East,83,1.0,2.0,96,0.00,,,0.00,19.0,meteohub,2013-07-08 11:11:00,
2013-07-08 07:16:00,64.9,63.9,30.10,East,83,0.0,2.0,96,0.00,,,0.00,25.0,meteohub,2013-07-08 11:16:00,
2013-07-08 07:21:00,64.9,63.9,30.10,East,83,0.0,2.0,96,0.00,,,0.00,26.0,meteohub,2013-07-08 11:21:00,
2013-07-08 07:27:00,64.9,63.9,30.10,East,83,0.0,2.0,96,0.00,,,0.00,23.0,meteohub,2013-07-08 11:27:00,
2013-07-08 07:32:00,65.1,64.0,30.11,East,83,0.0,2.0,96,0.00,,,0.00,19.0,meteohub,2013-07-08 11:32:00,
2013-07-08 07:37:00,65.1,64.0,30.11,East,83,0.0,2.0,96,0.00,,,0.00,19.0,meteohub,2013-07-08 11:37:00,
2013-07-08 07:42:00,65.1,64.0,30.11,East,83,0.0,1.0,96,0.00,,,0.00,25.0,meteohub,2013-07-08 11:42:00,
2013-07-08 07:47:00,65.1,64.0,30.11,East,83,1.0,0.0,96,0.00,,,0.00,44.0,meteohub,2013-07-08 11:47:00,
2013-07-08 07:52:00,65.1,64.0,30.11,East,83,0.0,1.0,96,0.00,,,0.00,62.0,meteohub,2013-07-08 11:52:00,
2013-07-08 07:57:00,65.3,64.0,30.11,ESE,114,0.0,2.0,96,0.00,,,0.00,67.0,meteohub,2013-07-08 11:57:00,
2013-07-08 08:02:00,65.3,64.0,30.11,ESE,114,0.0,2.0,96,0.00,,,0.00,74.0,meteohub,2013-07-08 12:02:00,
2013-07-08 08:07:00,65.5,64.2,30.11,ESE,114,0.0,2.0,96,0.00,,,0.00,76.0,meteohub,2013-07-08 12:07:00,
2013-07-08 08:12:00,65.7,64.4,30.11,ESE,114,0.0,0.0,96,0.00,,,0.00,81.0,meteohub,2013-07-08 12:12:00,
2013-07-08 08:17:00,65.8,64.9,30.11,ESE,114,0.0,1.0,97,0.00,,,0.00,83.0,meteohub,2013-07-08 12:17:00,
2013-07-08 08:22:00,65.8,64.9,30.11,SE,127,0.0,1.0,97,0.00,,,0.00,84.0,meteohub,2013-07-08 12:22:00,
2013-07-08 08:27:00,66.0,65.1,30.11,SE,127,0.0,1.0,97,0.00,,,0.00,93.0,meteohub,2013-07-08 12:27:00,
2013-07-08 08:32:00,66.2,65.3,30.11,SE,127,0.0,1.0,97,0.00,,,0.00,107.0,meteohub,2013-07-08 12:32:00,
2013-07-08 08:37:00,66.4,65.5,30.11,SE,127,0.0,1.0,97,0.00,,,0.00,107.0,meteohub,2013-07-08 12:37:00,
2013-07-08 08:42:00,66.6,65.7,30.11,NNE,30,0.0,1.0,97,0.00,,,0.00,104.0,meteohub,2013-07-08 12:42:00,
2013-07-08 08:47:00,66.6,65.3,30.11,NNE,30,0.0,2.0,96,0.00,,,0.00,132.0,meteohub,2013-07-08 12:47:00,
2013-07-08 08:52:00,66.7,65.5,30.11,NNE,33,0.0,2.0,96,0.00,,,0.00,104.0,meteohub,2013-07-08 12:52:00,
2013-07-08 08:57:00,66.9,65.7,30.12,NNE,33,0.0,2.0,96,0.00,,,0.00,111.0,meteohub,2013-07-08 12:57:00,
2013-07-08 09:02:00,66.9,65.7,30.12,SSW,195,0.0,1.0,96,0.00,,,0.00,120.0,meteohub,2013-07-08 13:02:00,
2013-07-08 09:07:00,67.3,65.8,30.12,SSW,195,0.0,3.0,95,0.00,,,0.00,121.0,meteohub,2013-07-08 13:07:00,
2013-07-08 09:12:00,67.3,65.8,30.12,SE,144,1.0,3.0,95,0.00,,,0.00,111.0,meteohub,2013-07-08 13:12:00,
2013-07-08 09:17:00,67.5,66.0,30.12,SE,144,0.0,3.0,95,0.00,,,0.00,158.0,meteohub,2013-07-08 13:17:00,
2013-07-08 09:22:00,67.6,66.2,30.12,NNE,14,1.0,3.0,95,0.00,,,0.00,111.0,meteohub,2013-07-08 13:22:00,
2013-07-08 09:28:00,67.6,65.8,30.12,NNE,24,0.0,3.0,94,0.00,,,0.00,121.0,meteohub,2013-07-08 13:28:00,
2013-07-08 09:33:00,67.8,66.0,30.12,NNE,24,0.0,3.0,94,0.00,,,0.00,142.0,meteohub,2013-07-08 13:33:00,
2013-07-08 09:38:00,68.0,66.2,30.12,East,92,0.0,2.0,94,0.00,,,0.00,167.0,meteohub,2013-07-08 13:38:00,
2013-07-08 09:43:00,68.4,66.9,30.13,East,92,0.0,1.0,95,0.00,,,0.00,186.0,meteohub,2013-07-08 13:43:00,
2013-07-08 09:48:00,68.5,66.7,30.13,East,96,0.0,2.0,94,0.00,,,0.00,200.0,meteohub,2013-07-08 13:48:00,
2013-07-08 09:53:00,68.7,66.9,30.13,SE,126,0.0,2.0,94,0.00,,,0.00,186.0,meteohub,2013-07-08 13:53:00,
2013-07-08 09:58:00,69.1,67.3,30.13,SSW,210,0.0,2.0,94,0.00,,,0.00,167.0,meteohub,2013-07-08 13:58:00,
2013-07-08 10:03:00,69.3,67.5,30.13,SSE,158,0.0,3.0,94,0.00,,,0.00,163.0,meteohub,2013-07-08 14:03:00,
2013-07-08 10:08:00,69.6,67.5,30.13,SSE,161,1.0,3.0,93,0.00,,,0.00,253.0,meteohub,2013-07-08 14:08:00,
2013-07-08 10:13:00,70.0,67.5,30.13,East,83,1.0,3.0,92,0.00,,,0.00,367.0,meteohub,2013-07-08 14:13:00,
2013-07-08 10:18:00,70.2,67.5,30.13,East,83,0.0,2.0,91,0.00,,,0.00,346.0,meteohub,2013-07-08 14:18:00,
2013-07-08 10:24:00,70.5,67.5,30.13,SW,233,1.0,2.0,90,0.00,,,0.00,682.0,meteohub,2013-07-08 14:24:00,
2013-07-08 10:29:00,71.1,68.0,30.14,SW,233,0.0,3.0,90,0.00,,,0.00,464.0,meteohub,2013-07-08 14:29:00,
2013-07-08 10:34:00,71.2,67.5,30.13,SSW,203,0.0,3.0,88,0.00,,,0.00,169.0,meteohub,2013-07-08 14:34:00,
2013-07-08 10:39:00,71.8,68.4,30.14,SSW,203,0.0,3.0,89,0.00,,,0.00,232.0,meteohub,2013-07-08 14:39:00,
2013-07-08 10:45:00,72.0,68.2,30.14,SSW,203,0.0,3.0,88,0.00,,,0.00,213.0,meteohub,2013-07-08 14:45:00,
2013-07-08 10:50:00,72.1,68.4,30.14,SSW,203,0.0,3.0,88,0.00,,,0.00,297.0,meteohub,2013-07-08 14:50:00,
2013-07-08 10:55:00,72.7,68.9,30.14,SSW,203,0.0,2.0,88,0.00,,,0.00,608.0,meteohub,2013-07-08 14:55:00,
2013-07-08 11:00:00,73.0,69.3,30.14,SSW,204,0.0,2.0,88,0.00,,,0.00,369.0,meteohub,2013-07-08 15:00:00,
2013-07-08 11:05:00,73.4,69.6,30.14,SSW,204,0.0,3.0,88,0.00,,,0.00,288.0,meteohub,2013-07-08 15:05:00,
2013-07-08 11:10:00,73.6,69.1,30.14,SSW,204,0.0,3.0,86,0.00,,,0.00,371.0,meteohub,2013-07-08 15:10:00,
2013-07-08 11:15:00,73.9,70.5,30.14,SSW,204,0.0,1.0,89,0.00,,,0.00,311.0,meteohub,2013-07-08 15:15:00,
2013-07-08 11:20:00,73.9,69.4,30.14,SSW,204,0.0,1.0,86,0.00,,,0.00,448.0,meteohub,2013-07-08 15:20:00,
2013-07-08 11:25:00,74.3,69.1,30.14,SSW,207,0.0,3.0,84,0.00,,,0.00,448.0,meteohub,2013-07-08 15:25:00,
2013-07-08 11:30:00,74.8,70.3,30.14,SW,215,1.0,3.0,86,0.00,,,0.00,967.0,meteohub,2013-07-08 15:30:00,
2013-07-08 11:35:00,75.6,71.1,30.14,SW,215,1.0,3.0,86,0.00,,,0.00,895.0,meteohub,2013-07-08 15:35:00,
2013-07-08 11:40:00,76.3,71.4,30.14,South,184,2.0,3.0,85,0.00,,,0.00,396.0,meteohub,2013-07-08 15:40:00,
2013-07-08 11:45:00,76.6,70.3,30.14,SW,228,0.0,5.0,81,0.00,,,0.00,320.0,meteohub,2013-07-08 15:45:00,
2013-07-08 11:50:00,77.0,71.1,30.13,SSW,209,0.0,5.0,82,0.00,,,0.00,1005.0,meteohub,2013-07-08 15:50:00,
2013-07-08 11:55:00,77.4,71.1,30.14,West,271,0.0,5.0,81,0.00,,,0.00,438.0,meteohub,2013-07-08 15:55:00,
2013-07-08 12:00:00,77.4,71.1,30.14,SE,146,1.0,4.0,81,0.00,,,0.00,364.0,meteohub,2013-07-08 16:00:00,
2013-07-08 12:05:00,77.5,71.6,30.13,SSW,209,0.0,4.0,82,0.00,,,0.00,724.0,meteohub,2013-07-08 16:05:00,
2013-07-08 12:10:00,78.1,72.5,30.13,East,96,0.0,4.0,83,0.00,,,0.00,1162.0,meteohub,2013-07-08 16:10:00,
2013-07-08 12:15:00,78.6,71.6,30.13,SE,139,1.0,3.0,79,0.00,,,0.00,283.0,meteohub,2013-07-08 16:15:00,
2013-07-08 12:20:00,78.8,70.2,30.13,SE,138,1.0,2.0,75,0.00,,,0.00,199.0,meteohub,2013-07-08 16:20:00,
2013-07-08 12:25:00,78.6,71.2,30.13,SE,138,0.0,2.0,78,0.00,,,0.00,188.0,meteohub,2013-07-08 16:25:00,
2013-07-08 12:30:00,78.6,70.9,30.13,SE,138,0.0,2.0,77,0.00,,,0.00,570.0,meteohub,2013-07-08 16:30:00,
2013-07-08 12:35:00,78.4,70.2,30.13,South,190,1.0,1.0,76,0.00,,,0.00,295.0,meteohub,2013-07-08 16:35:00,
2013-07-08 12:40:00,78.6,72.0,30.12,SSW,205,0.0,2.0,80,0.00,,,0.00,1060.0,meteohub,2013-07-08 16:40:00,
2013-07-08 12:46:00,79.0,70.3,30.12,WSW,256,0.0,3.0,75,0.00,,,0.00,1060.0,meteohub,2013-07-08 16:46:00,
2013-07-08 12:51:00,79.2,69.3,30.12,SSE,147,4.0,4.0,72,0.00,,,0.00,1141.0,meteohub,2013-07-08 16:51:00,
2013-07-08 12:56:00,79.2,70.5,30.12,NNE,26,1.0,4.0,75,0.00,,,0.00,202.0,meteohub,2013-07-08 16:56:00,
2013-07-08 13:01:00,79.3,71.1,30.12,SW,223,1.0,4.0,76,0.00,,,0.00,1085.0,meteohub,2013-07-08 17:01:00,
2013-07-08 13:06:00,79.5,71.2,30.12,SSW,211,3.0,4.0,76,0.00,,,0.00,976.0,meteohub,2013-07-08 17:06:00,
2013-07-08 13:11:00,79.7,71.1,30.12,South,188,1.0,5.0,75,0.00,,,0.00,1007.0,meteohub,2013-07-08 17:11:00,
2013-07-08 13:16:00,80.1,73.0,30.12,WSW,244,0.0,5.0,79,0.00,,,0.00,1137.0,meteohub,2013-07-08 17:16:00,
2013-07-08 13:21:00,80.1,70.7,30.12,SE,141,1.0,5.0,73,0.00,,,0.00,167.0,meteohub,2013-07-08 17:21:00,
2013-07-08 13:27:00,79.9,71.2,30.12,WSW,252,0.0,3.0,75,0.00,,,0.00,197.0,meteohub,2013-07-08 17:27:00,
2013-07-08 13:32:00,79.3,70.3,30.12,SSE,155,0.0,3.0,74,0.00,,,0.00,167.0,meteohub,2013-07-08 17:32:00,
2013-07-08 13:37:00,79.0,70.0,30.12,SE,133,0.0,3.0,74,0.00,,,0.00,174.0,meteohub,2013-07-08 17:37:00,
2013-07-08 13:42:00,78.4,70.2,30.12,SE,130,0.0,3.0,76,0.00,,,0.00,135.0,meteohub,2013-07-08 17:42:00,
2013-07-08 13:47:00,78.3,70.9,30.12,West,275,0.0,4.0,78,0.00,,,0.00,146.0,meteohub,2013-07-08 17:47:00,
2013-07-08 13:52:00,78.3,73.0,30.11,SW,223,1.0,4.0,84,0.00,,,0.00,1121.0,meteohub,2013-07-08 17:52:00,
2013-07-08 13:57:00,78.4,73.2,30.11,SW,227,1.0,4.0,84,0.00,,,0.00,1074.0,meteohub,2013-07-08 17:57:00,
2013-07-08 14:02:00,78.6,72.3,30.11,West,259,4.0,4.0,81,0.00,,,0.00,1060.0,meteohub,2013-07-08 18:02:00,
2013-07-08 14:07:00,78.6,71.6,30.10,ESE,118,1.0,5.0,79,0.00,,,0.00,165.0,meteohub,2013-07-08 18:07:00,
2013-07-08 14:12:00,78.3,71.2,30.10,SW,221,2.0,5.0,79,0.00,,,0.00,163.0,meteohub,2013-07-08 18:12:00,
2013-07-08 14:17:00,78.1,71.4,30.10,SSE,161,0.0,5.0,80,0.00,,,0.00,149.0,meteohub,2013-07-08 18:17:00,
2013-07-08 14:22:00,77.5,71.2,30.10,SSW,210,1.0,3.0,81,0.00,,,0.00,181.0,meteohub,2013-07-08 18:22:00,
2013-07-08 14:27:00,77.4,71.4,30.10,SSW,201,0.0,3.0,82,0.00,,,0.00,241.0,meteohub,2013-07-08 18:27:00,
2013-07-08 14:33:00,77.5,72.7,30.10,SSW,207,0.0,3.0,85,0.00,,,0.00,564.0,meteohub,2013-07-08 18:33:00,
2013-07-08 14:38:00,77.7,71.8,30.10,SW,236,3.0,3.0,82,0.00,,,0.00,1046.0,meteohub,2013-07-08 18:38:00,
2013-07-08 14:43:00,78.3,73.0,30.09,SW,218,1.0,6.0,84,0.00,,,0.00,1067.0,meteohub,2013-07-08 18:43:00,
2013-07-08 14:48:00,78.8,72.5,30.09,ESE,109,0.0,6.0,81,0.00,,,0.00,1160.0,meteohub,2013-07-08 18:48:00,
2013-07-08 14:54:00,79.2,72.5,30.09,SE,143,1.0,5.0,80,0.00,,,0.00,1079.0,meteohub,2013-07-08 18:54:00,
2013-07-08 14:59:00,79.2,72.1,30.09,SSE,155,3.0,5.0,79,0.00,,,0.00,156.0,meteohub,2013-07-08 18:59:00,
2013-07-08 15:05:00,78.8,71.8,30.09,South,186,1.0,5.0,79,0.00,,,0.00,181.0,meteohub,2013-07-08 19:05:00,
2013-07-08 15:11:00,79.0,73.4,30.09,SW,231,1.0,5.0,83,0.00,,,0.00,1014.0,meteohub,2013-07-08 19:11:00,
2013-07-08 15:16:00,79.2,72.9,30.08,WSW,249,0.0,6.0,81,0.00,,,0.00,940.0,meteohub,2013-07-08 19:16:00,
2013-07-08 15:21:00,79.2,72.1,30.08,SW,226,0.0,6.0,79,0.00,,,0.00,348.0,meteohub,2013-07-08 19:21:00,
2013-07-08 15:26:00,79.2,72.5,30.08,South,183,1.0,6.0,80,0.00,,,0.00,172.0,meteohub,2013-07-08 19:26:00,
2013-07-08 15:32:00,79.2,73.6,30.08,South,182,0.0,4.0,83,0.00,,,0.00,803.0,meteohub,2013-07-08 19:32:00,
2013-07-08 15:37:00,79.2,72.9,30.08,SW,220,1.0,4.0,81,0.00,,,0.00,336.0,meteohub,2013-07-08 19:37:00,
2013-07-08 15:42:00,79.3,73.4,30.07,SSE,147,2.0,3.0,82,0.00,,,0.00,970.0,meteohub,2013-07-08 19:42:00,
2013-07-08 15:47:00,79.2,71.8,30.07,SSE,148,1.0,3.0,78,0.00,,,0.00,221.0,meteohub,2013-07-08 19:47:00,
2013-07-08 15:52:00,79.2,72.9,30.07,WSW,239,1.0,3.0,81,0.00,,,0.00,318.0,meteohub,2013-07-08 19:52:00,
2013-07-08 15:58:00,79.2,72.5,30.07,SSW,210,0.0,5.0,80,0.00,,,0.00,348.0,meteohub,2013-07-08 19:58:00,
2013-07-08 16:04:00,79.0,71.6,30.07,SE,124,1.0,5.0,78,0.00,,,0.00,262.0,meteohub,2013-07-08 20:04:00,
2013-07-08 16:09:00,79.0,72.3,30.07,WSW,238,1.0,5.0,80,0.00,,,0.00,380.0,meteohub,2013-07-08 20:09:00,
2013-07-08 16:14:00,79.2,72.9,30.07,SE,146,1.0,5.0,81,0.00,,,0.00,993.0,meteohub,2013-07-08 20:14:00,
2013-07-08 16:19:00,79.2,71.2,30.08,SSW,213,2.0,5.0,77,0.00,,,0.00,204.0,meteohub,2013-07-08 20:19:00,
2013-07-08 16:24:00,79.0,71.1,30.07,SW,225,1.0,5.0,77,0.00,,,0.00,255.0,meteohub,2013-07-08 20:24:00,
2013-07-08 16:29:00,78.6,71.2,30.07,South,186,0.0,4.0,78,0.00,,,0.00,197.0,meteohub,2013-07-08 20:29:00,
2013-07-08 16:35:00,78.1,70.7,30.07,WSW,239,0.0,4.0,78,0.00,,,0.00,135.0,meteohub,2013-07-08 20:35:00,
2013-07-08 16:40:00,77.5,70.2,30.07,East,79,0.0,4.0,78,0.00,,,0.00,278.0,meteohub,2013-07-08 20:40:00,
2013-07-08 16:45:00,77.2,70.5,30.07,SW,220,1.0,4.0,80,0.00,,,0.00,206.0,meteohub,2013-07-08 20:45:00,
2013-07-08 16:51:00,76.8,70.9,30.07,SW,223,0.0,4.0,82,0.01,,,0.01,169.0,meteohub,2013-07-08 20:51:00,
2013-07-08 16:56:00,75.9,70.7,30.07,ESE,103,0.0,5.0,84,0.01,,,0.01,93.0,meteohub,2013-07-08 20:56:00,
2013-07-08 17:02:00,75.6,70.7,30.07,NNW,329,0.0,5.0,85,0.01,,,0.01,65.0,meteohub,2013-07-08 21:02:00,
2013-07-08 17:07:00,75.0,70.2,30.07,WNW,303,0.0,5.0,85,0.01,,,0.01,54.0,meteohub,2013-07-08 21:07:00,
2013-07-08 17:12:00,74.7,70.2,30.06,NW,311,0.0,5.0,86,0.06,,,0.06,56.0,meteohub,2013-07-08 21:12:00,
2013-07-08 17:17:00,74.1,69.6,30.06,NW,309,0.0,5.0,86,0.07,,,0.07,60.0,meteohub,2013-07-08 21:17:00,
2013-07-08 17:22:00,73.8,69.6,30.06,NW,315,2.0,2.0,87,0.08,,,0.08,72.0,meteohub,2013-07-08 21:22:00,
2013-07-08 17:27:00,73.0,69.3,30.06,WSW,242,0.0,3.0,88,0.21,,,0.21,97.0,meteohub,2013-07-08 21:27:00,
2013-07-08 17:32:00,72.7,69.6,30.06,SE,130,0.0,3.0,90,0.21,,,0.21,98.0,meteohub,2013-07-08 21:32:00,
2013-07-08 17:38:00,72.3,69.3,30.06,SE,140,1.0,3.0,90,0.22,,,0.22,132.0,meteohub,2013-07-08 21:38:00,
2013-07-08 17:44:00,72.1,69.4,30.06,SE,140,0.0,2.0,91,0.22,,,0.22,100.0,meteohub,2013-07-08 21:44:00,
2013-07-08 17:49:00,72.0,69.3,30.06,SE,140,0.0,1.0,91,0.21,,,0.22,81.0,meteohub,2013-07-08 21:49:00,
2013-07-08 17:56:00,72.0,69.4,30.06,SE,140,0.0,1.0,92,0.21,,,0.22,97.0,meteohub,2013-07-08 21:56:00,
2013-07-08 18:01:00,72.0,69.4,30.06,SE,140,0.0,1.0,92,0.21,,,0.22,139.0,meteohub,2013-07-08 22:01:00,
2013-07-08 18:07:00,72.0,69.8,30.06,SE,140,0.0,1.0,93,0.21,,,0.22,74.0,meteohub,2013-07-08 22:07:00,
2013-07-08 18:12:00,72.0,69.8,30.06,SE,140,0.0,0.0,93,0.15,,,0.22,28.0,meteohub,2013-07-08 22:12:00,
2013-07-08 18:17:00,71.8,69.6,30.06,SE,126,1.0,1.0,93,0.15,,,0.22,26.0,meteohub,2013-07-08 22:17:00,
2013-07-08 18:23:00,71.8,69.6,30.06,NNE,22,0.0,3.0,93,0.12,,,0.22,16.0,meteohub,2013-07-08 22:23:00,
2013-07-08 18:28:00,71.2,68.7,30.07,ESE,111,0.0,3.0,92,0.01,,,0.22,16.0,meteohub,2013-07-08 22:28:00,
2013-07-08 18:34:00,71.2,68.7,30.07,SW,229,0.0,4.0,92,0.00,,,0.22,16.0,meteohub,2013-07-08 22:34:00,
2013-07-08 18:39:00,71.1,68.9,30.07,SW,229,0.0,4.0,93,0.00,,,0.22,32.0,meteohub,2013-07-08 22:39:00,
2013-07-08 18:44:00,70.9,68.7,30.07,SW,229,0.0,3.0,93,0.00,,,0.22,35.0,meteohub,2013-07-08 22:44:00,
2013-07-08 18:49:00,70.9,68.7,30.06,SW,229,0.0,2.0,93,0.00,,,0.22,56.0,meteohub,2013-07-08 22:49:00,
2013-07-08 18:54:00,70.7,68.5,30.06,WSW,237,0.0,2.0,93,0.00,,,0.22,67.0,meteohub,2013-07-08 22:54:00,
2013-07-08 19:00:00,70.5,68.4,30.06,SW,215,0.0,4.0,93,0.00,,,0.22,42.0,meteohub,2013-07-08 23:00:00,
2013-07-08 19:05:00,70.3,68.5,30.06,SW,219,0.0,4.0,94,0.00,,,0.22,42.0,meteohub,2013-07-08 23:05:00,
2013-07-08 19:10:00,70.3,68.5,30.06,SSW,212,0.0,4.0,94,0.00,,,0.22,33.0,meteohub,2013-07-08 23:10:00,
2013-07-08 19:15:00,70.2,68.4,30.06,SSW,212,0.0,1.0,94,0.00,,,0.22,28.0,meteohub,2013-07-08 23:15:00,
2013-07-08 19:22:00,70.2,68.4,30.06,SSW,212,0.0,1.0,94,0.00,,,0.22,18.0,meteohub,2013-07-08 23:22:00,
2013-07-08 19:27:00,70.2,68.4,30.06,SSW,212,0.0,1.0,94,0.00,,,0.22,14.0,meteohub,2013-07-08 23:27:00,
2013-07-08 19:32:00,70.0,68.2,30.06,SSW,212,0.0,0.0,94,0.00,,,0.22,14.0,meteohub,2013-07-08 23:32:00,
2013-07-08 19:37:00,70.0,68.2,30.06,SSW,212,0.0,0.0,94,0.00,,,0.22,18.0,meteohub,2013-07-08 23:37:00,
2013-07-08 19:42:00,70.0,68.2,30.07,SSW,212,0.0,0.0,94,0.00,,,0.22,16.0,meteohub,2013-07-08 23:42:00,
2013-07-08 19:48:00,69.8,68.4,30.06,SSW,207,0.0,0.0,95,0.00,,,0.22,16.0,meteohub,2013-07-08 23:48:00,
2013-07-08 19:53:00,69.6,68.2,30.07,SSW,207,0.0,0.0,95,0.00,,,0.22,14.0,meteohub,2013-07-08 23:53:00,
2013-07-08 19:58:00,69.6,68.2,30.07,SSW,207,0.0,0.0,95,0.00,,,0.22,12.0,meteohub,2013-07-08 23:58:00,
2013-07-08 20:04:00,69.4,68.0,30.07,SSW,207,0.0,0.0,95,0.00,,,0.22,11.0,meteohub,2013-07-09 00:04:00,
2013-07-08 20:09:00,69.4,68.0,30.07,SSW,207,0.0,1.0,95,0.00,,,0.22,12.0,meteohub,2013-07-09 00:09:00,
2013-07-08 20:14:00,69.3,67.8,30.07,SSW,207,0.0,1.0,95,0.00,,,0.22,11.0,meteohub,2013-07-09 00:14:00,
2013-07-08 20:19:00,69.3,67.8,30.07,SSW,207,0.0,1.0,95,0.00,,,0.22,9.0,meteohub,2013-07-09 00:19:00,
2013-07-08 20:24:00,69.3,67.8,30.07,SSW,207,1.0,1.0,95,0.00,,,0.22,7.0,meteohub,2013-07-09 00:24:00,
2013-07-08 20:29:00,69.1,67.8,30.08,SSW,207,0.0,1.0,96,0.00,,,0.22,5.0,meteohub,2013-07-09 00:29:00,
2013-07-08 20:35:00,69.1,67.8,30.08,SSW,207,0.0,1.0,96,0.00,,,0.22,0.0,meteohub,2013-07-09 00:35:00,
2013-07-08 20:40:00,69.1,67.8,30.08,SSW,207,1.0,1.0,96,0.00,,,0.22,0.0,meteohub,2013-07-09 00:40:00,
2013-07-08 20:46:00,68.9,67.6,30.08,SSW,207,1.0,2.0,96,0.00,,,0.22,0.0,meteohub,2013-07-09 00:46:00,
2013-07-08 20:51:00,68.7,67.5,30.08,SSW,207,0.0,2.0,96,0.00,,,0.22,0.0,meteohub,2013-07-09 00:51:00,
2013-07-08 20:56:00,68.7,67.5,30.08,SSW,207,0.0,2.0,96,0.00,,,0.22,0.0,meteohub,2013-07-09 00:56:00,
2013-07-08 21:01:00,68.7,67.5,30.08,SSW,207,0.0,2.0,96,0.00,,,0.22,0.0,meteohub,2013-07-09 01:01:00,
2013-07-08 21:06:00,68.7,67.5,30.08,SSW,207,0.0,1.0,96,0.00,,,0.22,0.0,meteohub,2013-07-09 01:06:00,
2013-07-08 21:11:00,68.7,67.5,30.08,SSW,207,0.0,1.0,96,0.00,,,0.22,0.0,meteohub,2013-07-09 01:11:00,
2013-07-08 21:17:00,68.7,67.5,30.08,SSW,207,0.0,1.0,96,0.00,,,0.22,0.0,meteohub,2013-07-09 01:17:00,
2013-07-08 21:22:00,68.7,67.5,30.08,SSW,207,0.0,0.0,96,0.00,,,0.22,0.0,meteohub,2013-07-09 01:22:00,
2013-07-08 21:28:00,68.7,67.5,30.09,SSW,207,0.0,0.0,96,0.00,,,0.22,0.0,meteohub,2013-07-09 01:28:00,
2013-07-08 21:34:00,68.7,67.5,30.09,SSW,207,0.0,0.0,96,0.00,,,0.22,0.0,meteohub,2013-07-09 01:34:00,
2013-07-08 21:39:00,68.7,67.5,30.09,SSW,207,0.0,0.0,96,0.00,,,0.22,0.0,meteohub,2013-07-09 01:39:00,
2013-07-08 21:44:00,68.7,67.5,30.09,SSW,207,0.0,0.0,96,0.00,,,0.22,0.0,meteohub,2013-07-09 01:44:00,
2013-07-08 21:51:00,68.7,67.5,30.10,SSW,207,0.0,1.0,96,0.00,,,0.22,0.0,meteohub,2013-07-09 01:51:00,
2013-07-08 21:56:00,68.7,67.8,30.10,SSW,207,0.0,1.0,97,0.00,,,0.22,0.0,meteohub,2013-07-09 01:56:00,
2013-07-08 22:01:00,68.5,67.6,30.10,SSW,207,0.0,1.0,97,0.00,,,0.22,0.0,meteohub,2013-07-09 02:01:00,
2013-07-08 22:06:00,68.5,67.6,30.10,SSW,207,0.0,1.0,97,0.00,,,0.22,0.0,meteohub,2013-07-09 02:06:00,
2013-07-08 22:11:00,68.5,67.6,30.10,SSW,207,1.0,2.0,97,0.00,,,0.22,0.0,meteohub,2013-07-09 02:11:00,
2013-07-08 22:16:00,68.5,67.6,30.11,SSW,207,0.0,2.0,97,0.00,,,0.22,0.0,meteohub,2013-07-09 02:16:00,
2013-07-08 22:22:00,68.5,67.6,30.11,SSW,207,0.0,2.0,97,0.00,,,0.22,0.0,meteohub,2013-07-09 02:22:00,
2013-07-08 22:27:00,68.5,67.6,30.11,SSW,207,0.0,2.0,97,0.00,,,0.22,0.0,meteohub,2013-07-09 02:27:00,
2013-07-08 22:32:00,68.5,67.6,30.12,SSW,207,0.0,1.0,97,0.00,,,0.22,0.0,meteohub,2013-07-09 02:32:00,
2013-07-08 22:37:00,68.5,67.6,30.12,SSW,207,0.0,1.0,97,0.00,,,0.22,0.0,meteohub,2013-07-09 02:37:00,
2013-07-08 22:42:00,68.5,67.6,30.12,SSW,207,0.0,0.0,97,0.00,,,0.22,0.0,meteohub,2013-07-09 02:42:00,
2013-07-08 22:47:00,68.5,67.6,30.12,SSW,207,0.0,1.0,97,0.00,,,0.22,0.0,meteohub,2013-07-09 02:47:00,
2013-07-08 22:52:00,68.5,67.6,30.12,SSW,207,0.0,1.0,97,0.00,,,0.22,0.0,meteohub,2013-07-09 02:52:00,
2013-07-08 22:57:00,68.5,67.6,30.12,SSW,207,0.0,0.0,97,0.00,,,0.22,0.0,meteohub,2013-07-09 02:57:00,
2013-07-08 23:03:00,68.5,67.6,30.12,SSW,207,0.0,0.0,97,0.00,,,0.22,0.0,meteohub,2013-07-09 03:03:00,
2013-07-08 23:09:00,68.5,67.6,30.12,SSW,207,0.0,2.0,97,0.00,,,0.22,0.0,meteohub,2013-07-09 03:09:00,
2013-07-08 23:14:00,68.5,67.6,30.12,SSW,207,0.0,2.0,97,0.00,,,0.22,0.0,meteohub,2013-07-09 03:14:00,
2013-07-08 23:19:00,68.5,67.6,30.11,SSW,207,0.0,2.0,97,0.00,,,0.22,0.0,meteohub,2013-07-09 03:19:00,
2013-07-08 23:24:00,68.5,67.6,30.12,SSW,207,0.0,0.0,97,0.00,,,0.22,0.0,meteohub,2013-07-09 03:24:00,
2013-07-08 23:29:00,68.5,67.6,30.11,SSW,207,0.0,0.0,97,0.00,,,0.22,0.0,meteohub,2013-07-09 03:29:00,
2013-07-08 23:35:00,68.5,67.6,30.11,SSW,207,0.0,0.0,97,0.00,,,0.22,0.0,meteohub,2013-07-09 03:35:00,
2013-07-08 23:40:00,68.5,67.6,30.11,SSW,207,0.0,0.0,97,0.00,,,0.22,0.0,meteohub,2013-07-09 03:40:00,
2013-07-08 23:46:00,68.4,67.5,30.11,SSW,207,0.0,0.0,97,0.00,,,0.22,0.0,meteohub,2013-07-09 03:46:00,
2013-07-08 23:51:00,68.4,67.5,30.11,SSW,207,0.0,0.0,97,0.00,,,0.22,0.0,meteohub,2013-07-09 03:51:00,
2013-07-08 23:57:00,68.4,67.5,30.11,SSW,207,0.0,0.0,97,0.00,,,0.22,0.0,meteohub,2013-07-09 03:57:00,